Weather History for Wright-Patt AFB, OH

Change the Weather History Date:

Tuesday, December 17, 2013

  Actual Average Record
Temperature  
Mean Temperature 28 °F -  
Max Temperature 32 °F 37 °F 62 °F (2006)
Min Temperature 24 °F 22 °F 8 °F (2000)
Degree Days  
Heating Degree Days 36    
Moisture  
Dew Point 24 °F    
Average Humidity 86    
Maximum Humidity 94    
Minimum Humidity 80    
Precipitation  
Precipitation 0.00 in - - ()
Snow  
Snow 0.00 in - - ()
Snow Depth 4.00 in    
Sea Level Pressure  
Sea Level Pressure 30.06 in    
Wind  
Wind Speed 7 mph (WSW)    
Max Wind Speed 15 mph    
Max Gust Speed -    
Visibility 7 miles    
Events Snow    
Averages and records for this station are not official NWS values.
T = Trace of Precipitation, MM = Missing Value Source: NWS Daily Summary

Daily Weather History Graph

Daily Weather History Graph

Search for Another Location

Airport:

Trip Planner

Search our weather history database for the weather conditions in past years. The results will help you decide how hot, cold, wet, or windy it might be!

Date:

Astronomy

Dec. 17, 2013 Rise Set
Actual Time 7:51 AM EST 5:13 PM EST
Civil Twilight 7:21 AM EST 5:43 PM EST
Nautical Twilight 6:47 AM EST 6:17 PM EST
Astronomical Twilight 6:14 AM EST 6:50 PM EST
Moon 5:52 PM EST (12/17) 7:47 AM EST (12/17)
Length of Visible Light 10h 22m
Length of Day
9h 21m
Full, 100% of the Moon is Illuminated
Dec 17
Full
Dec 25
Last Quarter
Jan 1
New
Jan 7
First Quarter
Jan 15
Full

Hourly Weather History & Observations

Time (EST) Temp. Windchill Dew Point Humidity Pressure Visibility Wind Dir Wind Speed Gust Speed Precip Events Conditions
12:28 AM 26.6 °F - 24.8 °F 93% 29.97 in 5.0 mi Calm Calm - N/A   Mostly Cloudy
12:48 AM 26.6 °F - 24.8 °F 93% 29.96 in 5.0 mi North 2.3 mph - N/A   Mostly Cloudy
12:58 AM 25.7 °F - 24.1 °F 94% 30.00 in 4.0 mi Calm Calm - N/A   Mostly Cloudy
1:08 AM 26.6 °F - 24.8 °F 93% 29.96 in 5.0 mi Calm Calm - N/A   Overcast
1:18 AM 26.6 °F - 24.8 °F 93% 29.96 in 5.0 mi Variable 1.2 mph - N/A   Overcast
1:28 AM 28.4 °F 20.4 °F 26.6 °F 93% 29.96 in 5.0 mi SW 8.1 mph - N/A   Overcast
1:58 AM 32.0 °F 22.5 °F 30.2 °F 93% 30.00 in 5.0 mi WSW 12.7 mph - N/A   Overcast
2:08 AM 32.0 °F 23.6 °F 30.2 °F 93% 29.97 in 5.0 mi WSW 10.4 mph - N/A   Overcast
2:45 AM 32.0 °F 24.8 °F 28.4 °F 87% 29.99 in 5.0 mi WSW 8.1 mph - N/A   Overcast
2:58 AM 31.5 °F 25.8 °F 28.9 °F 90% 30.03 in 4.0 mi West 5.8 mph - N/A   Overcast
3:58 AM 28.4 °F 19.7 °F 26.6 °F 93% 30.04 in 6.0 mi WNW 9.2 mph - N/A   Overcast
4:58 AM 28.0 °F 20.0 °F 25.0 °F 88% 30.03 in 5.0 mi West 8.1 mph - N/A   Overcast
5:48 AM 26.6 °F 19.1 °F 24.8 °F 93% 30.00 in 5.0 mi West 6.9 mph - N/A   Overcast
5:58 AM 27.3 °F 20.9 °F 24.4 °F 89% 30.05 in 5.0 mi West 5.8 mph - N/A   Overcast
6:58 AM 27.0 °F 18.0 °F 23.5 °F 87% 30.08 in 10.0 mi West 9.2 mph - N/A   Overcast
7:58 AM 25.7 °F 16.4 °F 21.6 °F 84% 30.09 in 10.0 mi WNW 9.2 mph - N/A   Overcast
8:58 AM 25.5 °F 17.8 °F 21.6 °F 85% 30.09 in 7.0 mi WNW 6.9 mph - N/A   Overcast
9:44 AM 26.6 °F 18.2 °F 21.2 °F 80% 30.11 in 7.0 mi West 8.1 mph - N/A   Overcast
9:58 AM 26.2 °F 17.1 °F 22.1 °F 84% 30.13 in 10.0 mi West 9.2 mph - N/A   Overcast
10:58 AM 26.4 °F 18.9 °F 21.7 °F 82% 30.11 in 10.0 mi West 6.9 mph - N/A   Overcast
11:58 AM 26.6 °F 15.7 °F 21.7 °F 82% 30.09 in 10.0 mi SSW 12.7 mph - N/A   Overcast
12:58 PM 27.0 °F 16.7 °F 21.6 °F 80% 30.05 in 10.0 mi SW 11.5 mph - N/A   Overcast
1:58 PM 27.7 °F 18.2 °F 22.1 °F 80% 30.02 in 10.0 mi SW 10.4 mph - N/A   Overcast
2:58 PM 27.5 °F 17.4 °F 21.9 °F 80% 30.04 in 10.0 mi WSW 11.5 mph - N/A   Mostly Cloudy
3:28 PM 26.6 °F 16.8 °F 23.0 °F 86% 30.03 in 10.0 mi SSW 10.4 mph - N/A   Overcast
3:58 PM 27.5 °F 16.3 °F 22.8 °F 83% 30.03 in 10.0 mi SSW 13.8 mph - N/A   Mostly Cloudy
4:58 PM 27.5 °F 18.6 °F 22.6 °F 82% 30.05 in 3.0 mi WSW 9.2 mph - N/A Snow Light Snow
5:06 PM 28.4 °F 19.7 °F 23.0 °F 80% 30.05 in 1.0 mi WSW 9.2 mph - N/A Snow Light Snow
5:20 PM 26.6 °F 15.7 °F 23.0 °F 86% 30.06 in 1.5 mi WSW 12.7 mph - N/A Snow Light Snow
5:28 PM 26.6 °F 15.7 °F 23.0 °F 86% 30.06 in 3.0 mi WSW 12.7 mph - N/A Snow Light Snow
5:35 PM 26.6 °F 16.8 °F 23.0 °F 86% 30.06 in 1.0 mi WSW 10.4 mph - N/A Snow Light Snow
5:47 PM 26.6 °F 15.7 °F 24.8 °F 93% 30.06 in 2.0 mi WSW 12.7 mph - N/A Snow Light Snow
5:57 PM 27.3 °F 16.1 °F 23.9 °F 87% 30.07 in 3.0 mi WSW 13.8 mph - 0.00 in Snow Light Snow
6:05 PM 26.6 °F 15.7 °F 23.0 °F 86% 30.07 in 7.0 mi WSW 12.7 mph - N/A Snow Light Snow
6:22 PM 26.6 °F 15.7 °F 23.0 °F 86% 30.08 in 10.0 mi WSW 12.7 mph - N/A   Overcast
6:55 PM 27.7 °F 16.1 °F 22.8 °F 82% 30.09 in 10.0 mi WSW 15.0 mph - 0.00 in   Overcast
7:58 PM 28.4 °F 18.0 °F 23.0 °F 80% 30.12 in 10.0 mi West 12.7 mph - N/A   Overcast
8:58 PM 28.6 °F 19.3 °F 23.2 °F 80% 30.14 in 10.0 mi West 10.4 mph - N/A   Overcast
9:58 PM 28.4 °F 21.2 °F 23.0 °F 80% 30.15 in 10.0 mi WSW 6.9 mph - N/A   Overcast
10:48 PM 28.4 °F 18.5 °F 23.0 °F 80% 30.11 in 10.0 mi SW 11.5 mph - N/A   Overcast
10:58 PM 28.6 °F 18.7 °F 23.5 °F 81% 30.16 in 10.0 mi SW 11.5 mph - N/A   Overcast
11:28 PM 26.6 °F 16.8 °F 23.0 °F 86% 30.12 in 10.0 mi SW 10.4 mph - N/A   Scattered Clouds
11:58 PM 24.6 °F 13.8 °F 20.8 °F 86% 30.16 in 10.0 mi SW 11.5 mph - N/A   Partly Cloudy